Lone Rock, WI

10:32 AM CDT on June 28, 2017 (GMT -0500)
Tri-County Regional

Weather History for KLNR - October, 2011

Change the Weather History Date:

Tuesday, October 11, 2011

  Actual Average Record
Temperature  
Mean Temperature 62 °F -  
Max Temperature 73 °F 60 °F 82 °F (2010)
Min Temperature 51 °F 38 °F 24 °F (2000)
Degree Days  
Heating Degree Days 4    
Growing Degree Days 12 (Base 50)    
Moisture  
Dew Point 55 °F    
Average Humidity 85    
Maximum Humidity 100    
Minimum Humidity 64    
Precipitation  
Precipitation 0.27 in - - ()
Sea Level Pressure  
Sea Level Pressure 29.93 in    
Wind  
Wind Speed 4 mph (ESE)    
Max Wind Speed 7 mph    
Max Gust Speed -    
Visibility 6 miles    
Events Rain    
Averages and records for this station are not official NWS values.
T = Trace of Precipitation, MM = Missing Value Source: NWS Daily Summary

Daily Weather History Graph

Daily Weather History Graph

Search for Another Location

Airport or City:

Trip Planner

Search our weather history database for the weather conditions in past years. The results will help you decide how hot, cold, wet, or windy it might be!

Date:

Astronomy

Oct. 11, 2011 Rise Set
Actual Time 7:09 AM CDT 6:24 PM CDT
Civil Twilight 6:40 AM CDT 6:53 PM CDT
Nautical Twilight 6:07 AM CDT 7:26 PM CDT
Astronomical Twilight 5:34 AM CDT 7:59 PM CDT
Moon 5:55 PM CDT (10/11) 6:48 AM CDT (10/11)
Length of Visible Light 12h 12m
Length of Day
11h 15m
Full, 100% of the Moon is Illuminated
Oct 11
Full
Oct 11
Full
Oct 19
Last Quarter
Oct 26
New
Nov 2
First Quarter

Hourly Weather History & Observations

Time (CDT) Temp. Dew Point Humidity Pressure Visibility Wind Dir Wind Speed Gust Speed Precip Events Conditions
12:56 AM 59.0 °F 50.0 °F 72% 29.98 in 10.0 mi East 3.5 mph - N/A   Partly Cloudy
2:56 AM 59.0 °F 50.0 °F 72% 29.97 in 10.0 mi ESE 5.8 mph - N/A   Mostly Cloudy
6:56 AM 57.9 °F 53.1 °F 84% 29.99 in 8.0 mi East 4.6 mph - 0.00 in   Overcast
7:23 AM 57.2 °F 53.6 °F 88% 30.02 in 2.5 mi East 3.5 mph - 0.09 in Rain Heavy Rain
7:49 AM 55.4 °F 53.6 °F 94% 30.01 in 1.2 mi ENE 5.8 mph - 0.21 in Rain Heavy Rain
7:56 AM 57.0 °F 54.0 °F 89% 30.00 in 3.0 mi NE 3.5 mph - 0.21 in Rain Light Rain
9:56 AM 57.9 °F 55.0 °F 90% 30.00 in 3.0 mi ESE 5.8 mph - 0.03 in Rain Light Rain
10:13 AM 57.2 °F 55.4 °F 94% 30.00 in 2.0 mi ENE 5.8 mph - 0.01 in Rain Light Rain
10:33 AM 57.2 °F 55.4 °F 94% 29.99 in 3.0 mi East 6.9 mph - 0.02 in Rain Light Rain
10:56 AM 59.0 °F 57.0 °F 93% 29.97 in 3.0 mi East 5.8 mph - 0.03 in   Overcast
11:33 AM 62.6 °F 59.0 °F 88% 29.98 in 5.0 mi East 4.6 mph - 0.00 in   Mostly Cloudy
11:56 AM 64.0 °F 59.0 °F 84% 29.96 in 5.0 mi Calm Calm - 0.00 in   Haze
12:56 PM 66.9 °F 61.0 °F 81% 29.95 in 8.0 mi Calm Calm - N/A   Overcast
1:16 PM 68.0 °F 60.8 °F 78% 29.96 in 9.0 mi Calm Calm - N/A   Overcast
1:52 PM 69.8 °F 60.8 °F 73% 29.94 in 10.0 mi SSW 4.6 mph - N/A   Overcast
1:56 PM 69.1 °F 60.1 °F 73% 29.92 in 10.0 mi SSW 4.6 mph - N/A   Overcast
2:56 PM 70.0 °F 59.0 °F 68% 29.91 in 10.0 mi SSE 3.5 mph - N/A   Overcast
3:21 PM 71.6 °F 60.8 °F 69% 29.92 in 10.0 mi South 6.9 mph - N/A   Mostly Cloudy
3:56 PM 72.0 °F 59.0 °F 64% 29.89 in 10.0 mi SSW 4.6 mph - N/A   Partly Cloudy
4:56 PM 71.1 °F 59.0 °F 66% 29.88 in 10.0 mi SSW 5.8 mph - N/A   Mostly Cloudy
5:56 PM 70.0 °F 59.0 °F 68% 29.88 in 10.0 mi SSE 4.6 mph - N/A   Scattered Clouds
6:56 PM 66.0 °F 57.9 °F 75% 29.89 in 10.0 mi Calm Calm - N/A   Clear
7:56 PM 61.0 °F 57.0 °F 87% 29.89 in 10.0 mi ENE 3.5 mph - N/A   Clear
8:56 PM 57.9 °F 54.0 °F 87% 29.90 in 10.0 mi Calm Calm - N/A   Clear
9:56 PM 57.0 °F 55.0 °F 93% 29.90 in 8.0 mi Calm Calm - N/A   Clear
10:53 PM 53.6 °F 51.8 °F 94% 29.91 in 0.8 mi ESE 3.5 mph - N/A   Clear
10:56 PM 53.1 °F 51.1 °F 93% 29.89 in 0.8 mi ESE 3.5 mph - N/A   Clear
11:05 PM 51.8 °F 50.0 °F 94% 29.90 in 2.0 mi Calm Calm - N/A   Clear
11:09 PM 51.8 °F 50.0 °F 94% 29.90 in 0.8 mi Calm Calm - N/A   Mist
11:18 PM 53.6 °F 51.8 °F 94% 29.90 in 1.5 mi ESE 3.5 mph - N/A   Partly Cloudy
11:24 PM 51.8 °F 51.8 °F 100% 29.90 in 0.8 mi ESE 3.5 mph - N/A   Mist
11:36 PM 53.6 °F 51.8 °F 94% 29.90 in 1.2 mi ESE 5.8 mph - N/A   Partly Cloudy
11:40 PM 53.6 °F 53.6 °F 100% 29.90 in 3.0 mi ESE 4.6 mph - N/A   Partly Cloudy
11:56 PM 54.0 °F 53.1 °F 97% 29.89 in 3.0 mi Calm Calm - N/A   Clear